Weather in 小ity of Hami

China     42掳50鈥04鈥砃   93掳30鈥27鈥矱
temp.,
掳C
wind,
m/s
gust,
m/s
humid.,
%
clouds,
%
prec.,
mm/h
press.,
hPa
HPBL,
m
23 october, sat
sat2300:00+14wsw12210 0.0 101513
03:00+12n34233 0.0 101736
06:00+11nw44255 0.0 102038
09:00+15n45245 0.0 1022399
12:00+16sw3221100 0.0 1022761
15:00+17w4320100 0.0 1022786
18:00+15wsw1126100 0.0 102422
21:00+12s4634100 0.0 1026208
24 october, sun
sun2400:00+11ssw1239100 0.0 1027126
03:00+10sw3441100 0.0 1027236
06:00+8ssw2344100 0.0 1029109
09:00+10s1240100 0.0 1029420
12:00+12w2234100 0.0 1027820
15:00+13w3332100 0.0 1026928
18:00+12wsw1136100 0.0 102626
21:00+11ese013948 0.0 102710
25 october, mon
mon2500:00+9sse22415 0.0 102620
03:00+8se233827 0.0 102623
06:00+7ese34400 0.0 102738
09:00+10se44310 0.0 1027420
12:00+12se22260 0.0 1025792
15:00+14se11230 0.0 1023782
18:00+12se11290 0.0 102511
21:00+11ene22300 0.0 102511
26 october, tue
tue2600:00+10e22310 0.0 102511
03:00+9e33330 0.0 102514
06:00+8e22340 0.0 102510
09:00+12ese33270 0.0 1026233
12:00+15se22210 0.0 1023622
15:00+16sw11180 0.0 1021714
18:00+13nw11240 0.0 102210
21:00+12nne33240 0.0 102214
27 october, wed
wed2700:00+12sw22250 0.0 102210
03:00+10wnw11290 0.0 102210
06:00+9n11301 0.0 102310
09:00+13wsw11210 0.0 1024165
12:00+16w221829 0.0 1023652
15:00+17w331836 0.0 1021798
18:00+14wnw33245 0.0 102229
21:00+12n33265 0.0 102215